Thursday, October 02, 2014
04:29 UTC
  |  Log In   |  Register Free
Airport Search:

Skyway Estates Airport
(60G)

Skyway Estates Airport Diagram
No Airport Diagram Available

FAA data valid effective September 18, 2014 - November 13, 2014 (unless otherwise noted).

 
 
 
 
 
 
 
 
 
 
 
 
 
 

Current Aviation Weather for Skyway Estates Airport (60G)

METAR data is unavailable for 60G. The nearest METAR location is at KFPK (7.1 nm SW from 60G).

The most recent METAR observation for KFPK was updated at: 0410
METAR Summary (Translated METAR)
KFPK
020355Z AUTO 13004KT 10SM CLR 13/10 A3001 RMK AO2 T01250098
(7.1 nm SW from 60G)
KTEW
020353Z AUTO 00000KT 7SM CLR 11/10 A3004 RMK AO2 T01070096
(10.1 nm SE from 60G)
TAF Summary (Translated TAF)
KLAN
(15.8 nm NE from KFPK)
011945Z 0120/0218 13006KT P6SM SCT030 FM020700 16007KT P6SM OVC080 FM021400 16009KT 5SM -SHRA BR VCTS OVC025CB FM021600 17008KT 2SM BR OVC015
  Airport Weather Conditions for 60G

Current weather conditions are
not available for 60G


The nearest NOAA weather station
is at FPK, (7.1 nm SW from 60G)
  
 Current Weather at FPK
55° F
Fair
Southeast winds at 4.6 mph
FPK NOAA Radar

Pressure: 30.01 in
Humidity: 84%
Wind: Southeast at 4.6 MPH (4 KT)
Dew Point: 49.6°F
Visibility: 10.00 mi


Airport Weather Forecast for 60G

Translated METAR and TAF for KFPK
Translated METAR for KFPK (0424 UTC 02 October 2014)
found at http://aviationweather.gov/adds/metars/
 
METAR text: KFPK 020414Z AUTO 13003KT 10SM CLR 13/10 A3001 RMK AO2 T01260101
Conditions at: KFPK (CHARLOTTE , MI, US) observed 0414 UTC 02 October 2014
Temperature: 12.6°C (55°F)
Dewpoint: 10.1°C (50°F) [RH = 85%]
Pressure (altimeter): 30.01 inches Hg (1016.3 mb)
Winds: from the SE (130 degrees) at 3 MPH (3 knots; 1.6 m/s)
Visibility: 10 or more miles (16+ km)
Ceiling: at least 12,000 feet AGL
Clouds: sky clear below 12,000 feet AGL
Weather: automated observation with no human augmentation;
there may or may not be significant weather present at this time
Translated TAF for KFPK

There is no translated TAF available for this airport

Find All Airport Services Find A Hotel Find A Rental Car Find A Golf Course Find A Restaurant $100 Hamburger



FBO's on the Field
FBO Company Facility Photos Services Transportation Aviation Fuel Prices: Prices include tax
Catering Weather Repair Courtesy Rental Type 100LL JetA JetA+ MOGAS 8087
 
Add another FBO Facility Photos Catering Weather Repair Courtesy Rental Type 100LL JetA JetA+ MOGAS 8087
Services Transportation Aviation Fuel Prices: Prices include tax
There are no FBO's currently reporting fuel at 60G. List your FBO now


model-print
model-print
model-print
model-print